Pagina principale
METAR-TAF:

METAR-TAF

Aeroporti :

Monte Argentario, Italia

latitudine: 42-23N, longitudine: 011-10E, altezza: 630 m

Osservazione

Il bollettino è stato emesso 38 minuti fa, alle 09:55 UTC
Vento 3 kt da sud/sud-est
Temperature 19°C
Umidità 56%
Pressione 1020 hPa
Visibilità 10 km o più
Nubi sparse ad un'altezza di 300 ft

METAR: LIQO 210955Z 16003KT 9999 SCT003 19/10 Q1020

Ora: 12:33 (10:33 UTC)


TAF: mancante

Osservazioni e previsioni meteorologiche di più di 4000 aeroporti (messaggi METAR e TAF).

Le stazioni disponibili sono rappresentate dai dischi gialli e rossi sulla carta.

Puntare il mouse per vedere il nome della stazione.

Clicca sopra per visualizzare le osservazioni e previsioni meteorologiche.

Per cambiare la mappa : fare clic sui pulsanti verdi con una croce nera per ingrandire, il pulsante verde con un trattino per diminuire, o sulla freccia verde per le mappe adiacenti.


METAR-TAF: